| time (UTC) | temp F | wind direction | speed MPH | gust MPH | rain 1hr in | rain 24hr in | rain mn in | humidity % | barometer mb |
| 20260831170015 | 91 | 253 | 1.0 | 4.0 | 0.00 | 0.03 | 0.01 | 35 | |
| 20260831164511 | 90 | 237 | 0.0 | 4.0 | 0.00 | 0.03 | 0.01 | 36 | |
| 20260831163008 | 89 | 238 | 1.0 | 5.0 | 0.00 | 0.03 | 0.01 | 37 | |
| 20260831161506 | 88 | 236 | 1.0 | 4.0 | 0.00 | 0.03 | 0.01 | 39 | |
| 20260831160008 | 87 | 232 | 2.0 | 6.0 | 0.00 | 0.03 | 0.01 | 40 | |
| 20260831154507 | 85 | 224 | 2.0 | 5.0 | 0.00 | 0.03 | 0.01 | 42 | |
| 20260831153004 | 84 | 249 | 1.0 | 4.0 | 0.00 | 0.03 | 0.01 | 44 | |
| 20260831151503 | 83 | 256 | 0.0 | 4.0 | 0.00 | 0.03 | 0.01 | 48 | |
| 20260831150003 | 82 | 233 | 1.0 | 5.0 | 0.00 | 0.03 | 0.01 | 49 | |
| 20260831144506 | 81 | 279 | 0.0 | 4.0 | 0.00 | 0.03 | 0.01 | 53 | |
| 20260831143010 | 80 | 266 | 1.0 | 5.0 | 0.00 | 0.03 | 0.01 | 56 | |
| 20260831141510 | 79 | 227 | 1.0 | 5.0 | 0.00 | 0.03 | 0.01 | 57 | |
| 20260831140013 | 79 | 221 | 1.0 | 4.0 | 0.00 | 0.03 | 0.01 | 59 | |
| 20260831134513 | 78 | 225 | 0.0 | 3.0 | 0.00 | 0.03 | 0.01 | 61 | |
| 20260831133021 | 77 | 236 | 0.0 | 2.0 | 0.00 | 0.03 | 0.01 | 61 | |
| 20260831131510 | 77 | 236 | 0.0 | 3.0 | 0.00 | 0.03 | 0.01 | 62 | |
| 20260831130015 | 77 | 246 | 0.0 | 0.0 | 0.00 | 0.03 | 0.01 | 61 | |
| 20260831124534 | 77 | 246 | 0.0 | 0.0 | 0.00 | 0.03 | 0.01 | 60 | |
| 20260831123017 | 77 | 246 | 0.0 | 0.0 | 0.00 | 0.03 | 0.01 | 59 | |
| 20260831121520 | 78 | 246 | 0.0 | 0.0 | 0.01 | 0.03 | 0.01 | 58 | |
| 20260831120024 | 78 | 247 | 0.0 | 0.0 | 0.01 | 0.03 | 0.01 | 57 | 1089.0 |
| 20260831114538 | 79 | 248 | 0.0 | 2.0 | 0.01 | 0.03 | 0.01 | 55 | 1089.0 |
| 20260831113028 | 80 | 248 | 0.0 | 2.0 | 0.01 | 0.03 | 0.01 | 54 | 1089.0 |
| 20260831111527 | 81 | 259 | 0.0 | 2.0 | 0.00 | 0.02 | 0.00 | 53 | 1089.0 |
| 20260831110022 | 81 | 259 | 0.0 | 2.0 | 0.00 | 0.02 | 0.00 | 52 | 1089.0 |
| 20260831104532 | 81 | 259 | 0.0 | 1.0 | 0.00 | 0.02 | 0.00 | 52 | 1089.0 |
| 20260831103023 | 81 | 261 | 0.0 | 3.0 | 0.00 | 0.02 | 0.00 | 51 | 1089.0 |
| 20260831101524 | 82 | 226 | 1.0 | 4.0 | 0.00 | 0.02 | 0.00 | 51 | 1089.0 |
| 20260831100025 | 82 | 234 | 0.0 | 2.0 | 0.00 | 0.02 | 0.00 | 51 | 1089.0 |
| 20260831094524 | 82 | 233 | 0.0 | 0.0 | 0.00 | 0.02 | 0.00 | 50 | 1089.0 |
| 20260831093037 | 82 | 233 | 0.0 | 0.0 | 0.00 | 0.02 | 0.00 | 50 | 1089.0 |
| 20260831091533 | 82 | 233 | 0.0 | 3.0 | 0.00 | 0.02 | 0.00 | 50 | 1089.0 |
| 20260831090034 | 81 | 231 | 0.0 | 0.0 | 0.00 | 0.02 | 0.00 | 50 | 1089.0 |
| 20260831084538 | 82 | 231 | 0.0 | 0.0 | 0.00 | 0.02 | 0.00 | 49 | 1089.0 |
| 20260831083043 | 82 | 231 | 0.0 | 2.0 | 0.00 | 0.02 | 0.00 | 48 | 1089.0 |
| 20260831081538 | 81 | 231 | 0.0 | 3.0 | 0.00 | 0.02 | 0.00 | 49 | 1089.0 |
| 20260831080035 | 81 | 274 | 0.0 | 6.0 | 0.00 | 0.02 | 0.00 | 49 | 1089.0 |
| 20260831074539 | 79 | 234 | 1.0 | 3.0 | 0.00 | 0.02 | 0.00 | 51 | 1089.0 |
| 20260831073046 | 78 | 229 | 1.0 | 5.0 | 0.00 | 0.02 | 0.00 | 52 | 1089.0 |
| 20260831071535 | 78 | 227 | 2.0 | 4.0 | 0.00 | 0.02 | 0.00 | 54 | 1089.0 |
| 20260831070044 | 77 | 177 | 0.0 | 3.0 | 0.00 | 0.02 | 0.00 | 54 | 1089.0 |
| 20260831064539 | 76 | 164 | 0.0 | 1.0 | 0.00 | 0.02 | 0.00 | 56 | 1089.0 |
| 20260831063038 | 76 | 164 | 0.0 | 0.0 | 0.00 | 0.02 | 0.00 | 57 | 1089.0 |
| 20260831061537 | 76 | 164 | 0.0 | 0.0 | 0.00 | 0.02 | 0.00 | 57 | 1089.0 |
| 20260831060041 | 77 | 164 | 0.0 | 0.0 | 0.00 | 0.02 | 0.00 | 56 | 1089.0 |
| 20260831054533 | 78 | 164 | 0.0 | 0.0 | 0.01 | 0.02 | 0.00 | 56 | 1089.0 |
| 20260831053037 | 78 | 164 | 0.0 | 0.0 | 0.02 | 0.03 | 0.02 | 54 | 1089.0 |
| 20260831051538 | 80 | 164 | 0.0 | 0.0 | 0.02 | 0.03 | 0.02 | 51 | 1089.0 |
| 20260831050057 | 82 | 164 | 0.0 | 0.0 | 0.02 | 0.03 | 0.02 | 48 | 1089.0 |
| 20260831044600 | 84 | 164 | 0.0 | 1.0 | 0.01 | 0.02 | 0.01 | 46 | 1089.0 |
| 20260831043043 | 85 | 164 | 0.0 | 0.0 | 0.00 | 0.01 | 0.00 | 42 | 1089.0 |
| 20260831041602 | 85 | 164 | 0.0 | 0.0 | 0.00 | 0.01 | 0.00 | 43 | 1089.0 |
| 20260831040048 | 86 | 164 | 0.0 | 0.0 | 0.00 | 0.01 | 0.00 | 42 | 1089.0 |
| 20260831034553 | 86 | 164 | 0.0 | 0.0 | 0.00 | 0.01 | 0.00 | 41 | 1089.0 |
| 20260831033054 | 87 | 164 | 0.0 | 0.0 | 0.00 | 0.01 | 0.00 | 40 | 1089.0 |
| 20260831031603 | 87 | 164 | 0.0 | 0.0 | 0.00 | 0.01 | 0.00 | 39 | 1089.0 |
| 20260831030106 | 88 | 164 | 0.0 | 0.0 | 0.00 | 0.01 | 0.00 | 38 | 1089.0 |
| 20260831024502 | 88 | 164 | 0.0 | 0.0 | 0.00 | 0.01 | 0.00 | 39 | 1089.0 |
| 20260831023009 | 89 | 164 | 0.0 | 0.0 | 0.00 | 0.01 | 0.00 | 35 | 1089.0 |
| 20260831021512 | 90 | 164 | 0.0 | 0.0 | 0.00 | 0.01 | 0.00 | 34 | 1089.0 |
| 20260831020015 | 91 | 164 | 0.0 | 0.0 | 0.00 | 0.01 | 0.00 | 31 | 1089.0 |
| 20260831014514 | 92 | 164 | 0.0 | 0.0 | 0.00 | 0.01 | 0.00 | 31 | 1089.0 |
| 20260831013013 | 93 | 164 | 0.0 | 0.0 | 0.00 | 0.01 | 0.00 | 28 | 1089.0 |
| 20260831011516 | 94 | 164 | 0.0 | 0.0 | 0.00 | 0.01 | 0.00 | 26 | 1089.0 |
| 20260831010026 | 95 | 164 | 0.0 | 0.0 | 0.00 | 0.01 | 0.00 | 24 | 1089.0 |
| 20260831004513 | 96 | 164 | 0.0 | 1.0 | 0.00 | 0.01 | 0.00 | 23 | 1089.0 |
| 20260831003014 | 97 | 164 | 0.0 | 2.0 | 0.00 | 0.01 | 0.00 | 22 | 1089.0 |
| 20260831001527 | 98 | 163 | 0.0 | 2.0 | 0.00 | 0.01 | 0.00 | 21 | 1089.0 |
| 20260831000012 | 99 | 162 | 0.0 | 3.0 | 0.00 | 0.01 | 0.00 | 21 | 1089.0 |
| 20260830234534 | 99 | 156 | 1.0 | 3.0 | 0.00 | 0.01 | 0.00 | 20 | 1089.0 |
| 20260830233016 | 99 | 202 | 1.0 | 3.0 | 0.00 | 0.01 | 0.00 | 19 | 1089.0 |
| 20260830231516 | 99 | 154 | 1.0 | 3.0 | 0.00 | 0.01 | 0.00 | 19 | 1089.0 |
| 20260830230030 | 100 | 133 | 1.0 | 3.0 | 0.00 | 0.01 | 0.00 | 18 | 1089.0 |
| 20260830224531 | 100 | 90 | 1.0 | 4.0 | 0.00 | 0.01 | 0.00 | 19 | 1089.0 |
| 20260830223022 | 101 | 169 | 1.0 | 4.0 | 0.00 | 0.01 | 0.00 | 19 | 1089.0 |
| 20260830221525 | 101 | 153 | 2.0 | 5.0 | 0.00 | 0.01 | 0.00 | 18 | 1089.0 |
| 20260830220031 | 101 | 211 | 2.0 | 4.0 | 0.00 | 0.01 | 0.00 | 18 | 1089.0 |
| 20260830214528 | 102 | 171 | 1.0 | 4.0 | 0.00 | 0.01 | 0.00 | 18 | 1089.0 |
| 20260830213028 | 102 | 219 | 1.0 | 4.0 | 0.00 | 0.01 | 0.00 | 19 | 1089.0 |
| 20260830211530 | 102 | 135 | 1.0 | 5.0 | 0.00 | 0.01 | 0.00 | 19 | 1089.0 |
| 20260830210033 | 102 | 328 | 2.0 | 5.0 | 0.00 | 0.01 | 0.00 | 18 | 1089.0 |
| 20260830204537 | 101 | 229 | 0.0 | 4.0 | 0.00 | 0.01 | 0.00 | 19 | 1089.0 |
| 20260830203036 | 101 | 231 | 2.0 | 5.0 | 0.00 | 0.01 | 0.00 | 20 | 1089.0 |
| 20260830201605 | 101 | 100 | 2.0 | 4.0 | 0.00 | 0.01 | 0.00 | 20 | 1089.0 |
| 20260830200043 | 101 | 172 | 1.0 | 7.0 | 0.00 | 0.01 | 0.00 | 21 | 1089.0 |
| 20260830194546 | 101 | 238 | 2.0 | 7.0 | 0.00 | 0.01 | 0.00 | 20 | |
| 20260830193046 | 101 | 225 | 0.0 | 5.0 | 0.00 | 0.01 | 0.00 | 22 | |
| 20260830191547 | 101 | 100 | 1.0 | 4.0 | 0.00 | 0.01 | 0.00 | 22 | |
| 20260830190039 | 101 | 236 | 2.0 | 5.0 | 0.00 | 0.01 | 0.00 | 23 | |
| 20260830184543 | 100 | 225 | 1.0 | 5.0 | 0.00 | 0.01 | 0.00 | 25 | |
| 20260830183037 | 99 | 237 | 2.0 | 5.0 | 0.00 | 0.01 | 0.00 | 24 | |
| 20260830181548 | 98 | 195 | 2.0 | 4.0 | 0.00 | 0.01 | 0.00 | 26 | |
| 20260830180035 | 97 | 241 | 1.0 | 9.0 | 0.00 | 0.01 | 0.00 | 28 | |
| 20260830174534 | 96 | 159 | 1.0 | 4.0 | 0.00 | 0.01 | 0.00 | 31 | |
| 20260830173035 | 95 | 245 | 3.0 | 7.0 | 0.00 | 0.01 | 0.00 | 31 | |
| 20260830171533 | 93 | 202 | 3.0 | 7.0 | 0.00 | 0.01 | 0.00 | 32 |